TimePST,TemperatureF,Dew PointF,Humidity,Sea Level PressureIn,VisibilityMPH,Wind Direction,Wind SpeedMPH,Gust SpeedMPH,PrecipitationIn,Events,Conditions,WindDirDegrees,DateUTC
12:53 AM,57.9,44.1,60,30.14,10.0,NW,3.5,-,N/A,,Clear,310,2013-01-25 08:53:00
1:53 AM,57.9,43.0,58,30.13,10.0,West,4.6,-,N/A,,Partly Cloudy,280,2013-01-25 09:53:00
2:53 AM,57.9,44.1,60,30.12,10.0,Calm,Calm,-,N/A,,Mostly Cloudy,0,2013-01-25 10:53:00
3:53 AM,57.9,44.1,60,30.11,10.0,SW,4.6,-,N/A,,Partly Cloudy,220,2013-01-25 11:53:00
4:53 AM,59.0,43.0,55,30.11,10.0,Calm,Calm,-,N/A,,Mostly Cloudy,0,2013-01-25 12:53:00
5:53 AM,59.0,42.1,53,30.12,10.0,Calm,Calm,-,N/A,,Partly Cloudy,0,2013-01-25 13:53:00
6:53 AM,57.0,45.0,64,30.12,10.0,NW,3.5,-,N/A,,Clear,310,2013-01-25 14:53:00
7:53 AM,57.0,45.0,64,30.13,10.0,West,3.5,-,N/A,,Clear,270,2013-01-25 15:53:00
8:53 AM,62.1,48.9,62,30.15,10.0,WNW,4.6,-,0.00,,Scattered Clouds,300,2013-01-25 16:53:00
9:53 AM,66.0,51.1,59,30.14,10.0,NW,9.2,-,N/A,,Mostly Cloudy,320,2013-01-25 17:53:00
10:53 AM,66.9,51.1,57,30.14,10.0,NW,10.4,-,N/A,,Overcast,310,2013-01-25 18:53:00
11:53 AM,66.0,53.1,63,30.10,10.0,WNW,12.7,-,N/A,,Overcast,290,2013-01-25 19:53:00
12:53 PM,62.1,57.9,86,30.07,10.0,West,9.2,-,0.00,Rain,Light Rain,270,2013-01-25 20:53:00
1:53 PM,62.1,57.9,86,30.05,10.0,West,9.2,-,0.01,Rain,Light Rain,280,2013-01-25 21:53:00
2:53 PM,61.0,59.0,93,30.03,7.0,WNW,9.2,-,0.02,Rain,Light Rain,290,2013-01-25 22:53:00
3:53 PM,60.1,59.0,96,30.01,10.0,West,4.6,-,0.03,Rain,Light Rain,260,2013-01-25 23:53:00
4:53 PM,60.1,59.0,96,30.01,10.0,WSW,3.5,-,0.03,Rain,Light Rain,250,2013-01-26 00:53:00
5:53 PM,59.0,57.9,96,30.02,8.0,SW,5.8,-,0.01,Rain,Light Rain,230,2013-01-26 01:53:00
6:53 PM,59.0,57.9,96,30.01,10.0,WSW,5.8,-,0.09,Rain,Light Rain,240,2013-01-26 02:53:00
7:53 PM,59.0,57.9,96,30.00,10.0,Calm,Calm,-,0.02,Rain,Light Rain,0,2013-01-26 03:53:00
8:53 PM,59.0,57.9,96,29.99,10.0,Calm,Calm,-,0.01,,Overcast,0,2013-01-26 04:53:00
9:26 PM,57.2,57.2,100,30.00,3.0,SSW,3.5,-,0.03,Rain,Rain,200,2013-01-26 05:26:00
9:30 PM,57.2,57.2,100,29.99,2.5,Calm,Calm,-,0.04,Rain,Rain,0,2013-01-26 05:30:00
9:49 PM,57.2,57.2,100,29.99,4.0,Calm,Calm,-,0.08,Rain,Light Rain,0,2013-01-26 05:49:00
9:53 PM,57.9,57.9,100,29.99,4.0,Calm,Calm,-,0.08,Rain,Light Rain,0,2013-01-26 05:53:00
10:21 PM,57.2,57.2,100,29.99,2.5,WSW,3.5,-,0.06,Rain,Rain,240,2013-01-26 06:21:00
10:31 PM,57.2,57.2,100,29.99,3.0,WSW,3.5,-,0.09,Rain,Heavy Rain,240,2013-01-26 06:31:00
10:53 PM,57.0,57.0,100,29.99,7.0,West,4.6,-,0.12,Rain,Light Rain,260,2013-01-26 06:53:00
11:31 PM,57.2,57.2,100,29.98,5.0,SW,4.6,-,0.02,Rain,Light Rain,230,2013-01-26 07:31:00
11:53 PM,57.9,57.9,100,29.97,4.0,WSW,3.5,-,0.04,Rain,Light Rain,250,2013-01-26 07:53:00